Weather History for Cavalier, ND

Change the Weather History Date:

Thursday, January 17, 2013

  Actual Average (KGAF) Record (KGAF)
Temperature  
Mean Temperature 2 °F -  
Max Temperature 6 °F 15 °F 42 °F (1961)
Min Temperature -2 °F -4 °F -38 °F (1962)
Degree Days  
Heating Degree Days 64    
Moisture  
Dew Point -4 °F    
Average Humidity 78    
Maximum Humidity 85    
Minimum Humidity 66    
Precipitation  
Precipitation 0.01 in - - ()
Sea Level Pressure  
Sea Level Pressure 30.30 in    
Wind  
Wind Speed 8 mph (SE)    
Max Wind Speed 14 mph    
Max Gust Speed -    
Visibility 9 miles    
Events Snow    
Averages and records for this station are not official NWS values.
T = Trace of Precipitation, MM = Missing Value Source: NWS Daily Summary

Daily Weather History Graph

Daily Weather History Graph

Search for Another Location

Airport:

Trip Planner

Search our weather history database for the weather conditions in past years. The results will help you decide how hot, cold, wet, or windy it might be!

Date:

Astronomy

Jan. 17, 2013 Rise Set
Actual Time 8:16 AM CST 5:05 PM CST
Civil Twilight 7:41 AM CST 5:40 PM CST
Nautical Twilight 7:02 AM CST 6:19 PM CST
Astronomical Twilight 6:24 AM CST 6:57 PM CST
Moon 10:46 AM CST (1/17) No Moon Set
Length of Visible Light 9h 59m
Length of Day
8h 48m
Waxing Crescent, 38% of the Moon is Illuminated
Jan 17
Waxing Crescent
Jan 18
First Quarter
Jan 26
Full
Feb 3
Last Quarter
Feb 10
New

Hourly Weather History & Observations

Time (CST) Temp. Windchill Dew Point Humidity Pressure Visibility Wind Dir Wind Speed Gust Speed Precip Events Conditions
12:15 AM -2.2 °F -18.0 °F -7.6 °F 78% 30.25 in 10.0 mi South 9.2 mph - N/A   Overcast
12:35 AM -2.2 °F -16.8 °F -7.6 °F 78% 30.26 in 10.0 mi South 8.1 mph - N/A   Overcast
12:55 AM -0.4 °F -16.7 °F -7.6 °F 72% 30.26 in 10.0 mi South 10.4 mph - N/A   Overcast
1:15 AM -0.4 °F -15.7 °F -7.6 °F 72% 30.26 in 10.0 mi South 9.2 mph - N/A   Overcast
1:35 AM -0.4 °F -15.7 °F -7.6 °F 72% 30.26 in 10.0 mi South 9.2 mph - N/A   Overcast
2:15 AM -0.4 °F -19.2 °F -7.6 °F 72% 30.26 in 10.0 mi South 13.8 mph - N/A   Overcast
2:35 AM -0.4 °F -18.4 °F -5.8 °F 78% 30.26 in 10.0 mi South 12.7 mph - N/A   Overcast
2:55 AM -0.4 °F -19.2 °F -5.8 °F 78% 30.26 in 5.0 mi South 13.8 mph - N/A Snow Light Snow
3:35 AM -0.4 °F -14.7 °F -4.0 °F 85% 30.27 in 9.0 mi South 8.1 mph - N/A   Overcast
3:55 AM -0.4 °F -16.7 °F -4.0 °F 85% 30.27 in 8.0 mi South 10.4 mph - N/A   Overcast
4:15 AM -0.4 °F -17.6 °F -4.0 °F 85% 30.26 in 10.0 mi South 11.5 mph - N/A   Overcast
4:35 AM -0.4 °F -15.7 °F -4.0 °F 85% 30.26 in 10.0 mi South 9.2 mph - N/A   Overcast
4:55 AM 1.4 °F -13.5 °F -4.0 °F 78% 30.26 in 10.0 mi South 9.2 mph - N/A   Overcast
5:15 AM 1.4 °F -11.3 °F -4.0 °F 78% 30.26 in 8.0 mi SSW 6.9 mph - N/A   Overcast
5:35 AM 1.4 °F -9.9 °F -4.0 °F 78% 30.26 in 6.0 mi South 5.8 mph - N/A Snow Light Snow
5:55 AM 1.4 °F -9.9 °F -2.2 °F 85% 30.27 in 10.0 mi SSW 5.8 mph - N/A   Overcast
6:15 AM 1.4 °F - -2.2 °F 85% 30.27 in 9.0 mi Calm Calm - N/A   Overcast
6:35 AM 1.4 °F -6.2 °F -2.2 °F 85% 30.28 in 10.0 mi NNW 3.5 mph - N/A   Overcast
6:55 AM 1.4 °F -8.3 °F -2.2 °F 85% 30.28 in 10.0 mi North 4.6 mph - N/A   Overcast
7:15 AM 3.2 °F -6.2 °F -2.2 °F 78% 30.29 in 10.0 mi North 4.6 mph - N/A   Overcast
7:35 AM 3.2 °F -6.2 °F -0.4 °F 85% 30.31 in 10.0 mi NNW 4.6 mph - N/A   Overcast
7:55 AM 3.2 °F -11.3 °F -0.4 °F 85% 30.32 in 10.0 mi NNW 9.2 mph - N/A   Overcast
8:15 AM 3.2 °F -12.2 °F -2.2 °F 78% 30.33 in 10.0 mi NNW 10.4 mph - N/A   Overcast
8:35 AM 1.4 °F -12.5 °F -2.2 °F 85% 30.34 in 10.0 mi NNW 8.1 mph - N/A   Overcast
8:55 AM 1.4 °F -13.5 °F -2.2 °F 85% 30.36 in 10.0 mi NNW 9.2 mph - N/A   Partly Cloudy
9:15 AM 1.4 °F -12.5 °F -4.0 °F 78% 30.37 in 10.0 mi NNW 8.1 mph - N/A   Clear
9:35 AM 1.4 °F -11.3 °F -4.0 °F 78% 30.38 in 10.0 mi NNW 6.9 mph - N/A   Clear
9:55 AM -0.4 °F -15.7 °F -4.0 °F 85% 30.39 in 10.0 mi NNW 9.2 mph - N/A   Clear
10:15 AM 1.4 °F -11.3 °F -4.0 °F 78% 30.40 in 10.0 mi NNW 6.9 mph - N/A   Clear
10:35 AM 1.4 °F -11.3 °F -4.0 °F 78% 30.40 in 10.0 mi NNW 6.9 mph - N/A   Clear
10:55 AM 1.4 °F -12.5 °F -4.0 °F 78% 30.40 in 10.0 mi NNW 8.1 mph - N/A   Clear
11:15 AM 1.4 °F -8.3 °F -4.0 °F 78% 30.40 in 10.0 mi NNW 4.6 mph - N/A   Clear
11:35 AM 1.4 °F -9.9 °F -4.0 °F 78% 30.41 in 10.0 mi NNW 5.8 mph - N/A   Clear
11:55 AM 3.2 °F -6.2 °F -4.0 °F 72% 30.40 in 10.0 mi North 4.6 mph - N/A   Clear
12:15 PM 3.2 °F -4.2 °F -4.0 °F 72% 30.39 in 10.0 mi NNW 3.5 mph - N/A   Clear
12:35 PM 5.0 °F -2.1 °F -4.0 °F 66% 30.39 in 10.0 mi NNW 3.5 mph - N/A   Clear
12:55 PM 5.0 °F -4.1 °F -4.0 °F 66% 30.39 in 10.0 mi NE 4.6 mph - N/A   Clear
1:15 PM 3.2 °F -7.8 °F -4.0 °F 72% 30.39 in 10.0 mi NNE 5.8 mph - N/A   Clear
1:35 PM 5.0 °F -4.1 °F -4.0 °F 66% 30.39 in 9.0 mi East 4.6 mph - N/A   Clear
1:55 PM 3.2 °F -9.1 °F -4.0 °F 72% 30.37 in 9.0 mi East 6.9 mph - N/A   Clear
2:15 PM 1.4 °F -9.9 °F -4.0 °F 78% 30.37 in 8.0 mi East 5.8 mph - N/A   Clear
2:35 PM 1.4 °F -9.9 °F -4.0 °F 78% 30.37 in 10.0 mi East 5.8 mph - N/A   Clear
2:55 PM 1.4 °F -9.9 °F -4.0 °F 78% 30.37 in 10.0 mi East 5.8 mph - N/A   Clear
3:15 PM -0.4 °F -12.0 °F -5.8 °F 78% 30.36 in 10.0 mi East 5.8 mph - N/A   Clear
3:35 PM 1.4 °F -9.9 °F -5.8 °F 72% 30.36 in 10.0 mi East 5.8 mph - N/A   Clear
3:55 PM -0.4 °F -8.3 °F -5.8 °F 78% 30.36 in 10.0 mi East 3.5 mph - N/A   Clear
4:55 PM -2.2 °F -10.4 °F -7.6 °F 78% 30.34 in 10.0 mi SE 3.5 mph - N/A   Clear
5:35 PM -0.4 °F -8.3 °F -7.6 °F 72% 30.33 in 10.0 mi South 3.5 mph - N/A   Clear
7:15 PM 1.4 °F -8.3 °F -4.0 °F 78% 30.28 in 10.0 mi SSE 4.6 mph - N/A   Partly Cloudy
7:55 PM 1.4 °F -8.3 °F -2.2 °F 85% 30.27 in 10.0 mi SSE 4.6 mph - N/A   Mostly Cloudy
8:15 PM 1.4 °F -8.3 °F -2.2 °F 85% 30.26 in 10.0 mi SSE 4.6 mph - N/A   Scattered Clouds
8:55 PM 3.2 °F -9.1 °F -2.2 °F 78% 30.24 in 10.0 mi SSE 6.9 mph - N/A   Partly Cloudy
9:15 PM 5.0 °F -5.6 °F -2.2 °F 72% 30.23 in 10.0 mi SSE 5.8 mph - N/A   Mostly Cloudy
9:35 PM 5.0 °F -6.9 °F -2.2 °F 72% 30.21 in 10.0 mi SSE 6.9 mph - N/A   Scattered Clouds
9:55 PM 5.0 °F -6.9 °F -0.4 °F 78% 30.19 in 9.0 mi SSE 6.9 mph - N/A   Scattered Clouds
11:15 PM 5.0 °F -9.1 °F -0.4 °F 78% 30.12 in 1.8 mi SSE 9.2 mph - N/A Snow Light Snow
11:35 PM 5.0 °F -9.1 °F 1.4 °F 85% 30.11 in 2.5 mi SE 9.2 mph - 0.01 in Snow Light Snow
11:55 PM 6.8 °F -5.9 °F 1.4 °F 79% 30.08 in 1.5 mi SE 8.1 mph - 0.01 in Snow Light Snow